�v������,,���ԉ��x,�����t���O,���Ԏ��x,�����t���O,���ʏ�,�����t���O,��Q��,�����t���O,�{�C���[,�����t���O,10����30���i2/5�j,����,�����t���O,����,�����t���O
2004/2/1,0:00:00,19.6,0,38.2,0,21.9,0,19.7,0,22.1,0,2004/2/1 0:00,12.5,,20.6,0
2004/2/1,0:10:00,19.5,0,38.3,0,21.8,0,19.6,0,21.9,0,2004/2/1 0:10,12.6,,20.4,0
2004/2/1,0:20:00,19.4,0,38.2,0,21.6,0,19.6,0,21.7,0,2004/2/1 0:20,12.6,,20.4,0
2004/2/1,0:30:00,19.4,0,38.3,0,21.5,0,19.5,0,21.6,0,2004/2/1 0:30,12.6,,20.3,0
2004/2/1,0:40:00,19.3,0,38.1,0,21.3,0,19.5,0,21.4,0,2004/2/1 0:40,12.7,,20.1,0
2004/2/1,0:50:00,19.2,0,38.2,0,21.2,0,19.4,0,21.2,0,2004/2/1 0:50,12.7,,20.1,0
2004/2/1,1:00:00,19.2,0,38.4,0,21.1,0,19.4,0,21.1,0,2004/2/1 1:00,12.8,,20,0
2004/2/1,1:10:00,19.1,0,38.4,0,21,0,19.3,0,20.9,0,2004/2/1 1:10,12.8,,19.9,0
2004/2/1,1:20:00,19.1,0,38.4,0,20.9,0,19.3,0,20.8,0,2004/2/1 1:20,12.9,,19.9,0
2004/2/1,1:30:00,19,0,38.5,0,20.8,0,19.3,0,20.7,0,2004/2/1 1:30,12.9,,19.7,0
2004/2/1,1:40:00,19,0,38.5,0,20.7,0,19.2,0,20.5,0,2004/2/1 1:40,13,,19.6,0
2004/2/1,1:50:00,18.9,0,38.6,0,20.6,0,19.2,0,20.4,0,2004/2/1 1:50,13.1,,19.7,0
2004/2/1,2:00:00,18.9,0,38.6,0,20.5,0,19.2,0,20.3,0,2004/2/1 2:00,13.2,,19.5,0
2004/2/1,2:10:00,18.9,0,38.6,0,20.4,0,19.2,0,20.2,0,2004/2/1 2:10,13.2,,19.4,0
2004/2/1,2:20:00,18.8,0,38.6,0,20.3,0,19.1,0,20.1,0,2004/2/1 2:20,13.2,,19.3,0
2004/2/1,2:30:00,18.8,0,38.8,0,20.3,0,19.1,0,20,0,2004/2/1 2:30,13.3,,19.3,0
2004/2/1,2:40:00,18.8,0,38.8,0,20.2,0,19.1,0,19.9,0,2004/2/1 2:40,13.3,,19.3,0
2004/2/1,2:50:00,18.7,0,38.9,0,20.1,0,19.1,0,19.9,0,2004/2/1 2:50,13.4,,19.3,0
2004/2/1,3:00:00,18.7,0,38.8,0,20,0,19.1,0,19.8,0,2004/2/1 3:00,13.5,,19.3,0
2004/2/1,3:10:00,18.6,0,38.6,0,20,0,19,0,19.8,0,2004/2/1 3:10,13.5,,19.2,0
2004/2/1,3:20:00,18.6,0,38.6,0,19.9,0,19,0,19.7,0,2004/2/1 3:20,13.5,,19.1,0
2004/2/1,3:30:00,18.6,0,38.7,0,19.9,0,19,0,19.6,0,2004/2/1 3:30,13.6,,19,0
2004/2/1,3:40:00,18.6,0,38.6,0,19.8,0,19,0,19.6,0,2004/2/1 3:40,13.7,,19,0
2004/2/1,3:50:00,18.5,0,38.5,0,19.8,0,19,0,19.5,0,2004/2/1 3:50,13.6,,19,0
2004/2/1,4:00:00,18.5,0,38.4,0,19.7,0,18.9,0,19.5,0,2004/2/1 4:00,13.6,,19,0
2004/2/1,4:10:00,18.5,0,38.3,0,19.7,0,18.9,0,19.4,0,2004/2/1 4:10,13.8,,18.9,0
2004/2/1,4:20:00,18.5,0,38.3,0,19.7,0,18.9,0,19.4,0,2004/2/1 4:20,13.8,,18.8,0
2004/2/1,4:30:00,18.5,0,38.3,0,19.6,0,18.9,0,19.3,0,2004/2/1 4:30,13.8,,18.8,0
2004/2/1,4:40:00,18.4,0,38.3,0,19.6,0,18.9,0,19.3,0,2004/2/1 4:40,13.9,,18.8,0
2004/2/1,4:50:00,18.4,0,38.4,0,19.6,0,18.8,0,19.3,0,2004/2/1 4:50,13.9,,18.7,0
2004/2/1,5:00:00,18.3,0,38.3,0,19.5,0,18.8,0,19.2,0,2004/2/1 5:00,13.9,,18.8,0
2004/2/1,5:10:00,18.3,0,38.1,0,19.5,0,18.8,0,19.2,0,2004/2/1 5:10,14,,18.6,0
2004/2/1,5:20:00,18.3,0,38.1,0,19.5,0,18.8,0,19.1,0,2004/2/1 5:20,14,,18.6,0
2004/2/1,5:30:00,18.3,0,38,0,19.4,0,18.8,0,19.1,0,2004/2/1 5:30,14,,18.7,0
2004/2/1,5:40:00,18.3,0,37.8,0,19.4,0,18.8,0,19,0,2004/2/1 5:40,14.2,,18.6,0
2004/2/1,5:50:00,18.2,0,37.9,0,19.4,0,18.8,0,19,0,2004/2/1 5:50,14.1,,18.6,0
2004/2/1,6:00:00,18.9,0,38.4,0,19.8,0,18.9,0,20.5,0,2004/2/1 6:00,14.1,,18.7,0
2004/2/1,6:10:00,19.5,0,37.9,0,20.4,0,19.3,0,21.6,0,2004/2/1 6:10,14.2,,19,0
2004/2/1,6:20:00,20,0,37.1,0,21.1,0,19.6,0,22.4,0,2004/2/1 6:20,14.2,,19.2,0
2004/2/1,6:30:00,20.4,0,37,0,21.8,0,19.8,0,23.5,0,2004/2/1 6:30,11.7,,19.6,0
2004/2/1,6:40:00,20.7,0,36.5,0,22.4,0,20.1,0,23.8,0,2004/2/1 6:40,9.8,,19.9,0
2004/2/1,6:50:00,21.1,0,36.5,0,22.8,0,20.3,0,24.2,0,2004/2/1 6:50,10,,20.1,0
2004/2/1,7:00:00,20.2,0,37.4,0,22.9,0,20.1,0,23.9,0,2004/2/1 7:00,10.1,,20.4,0
2004/2/1,7:10:00,19.8,0,37.9,0,22.8,0,19.9,0,23.4,0,2004/2/1 7:10,10.2,,20.4,0
2004/2/1,7:20:00,19.6,0,37.9,0,22.6,0,19.7,0,23.1,0,2004/2/1 7:20,10.3,,20.4,0
2004/2/1,7:30:00,19.4,0,37.9,0,22.4,0,19.6,0,22.9,0,2004/2/1 7:30,10.2,,20.3,0
2004/2/1,7:40:00,19.3,0,37.9,0,22.2,0,19.5,0,22.6,0,2004/2/1 7:40,10.4,,20.3,0
2004/2/1,7:50:00,19.2,0,37.9,0,22,0,19.4,0,22.4,0,2004/2/1 7:50,10.4,,20.2,0
2004/2/1,8:00:00,19.1,0,37.9,0,21.8,0,19.3,0,22.1,0,2004/2/1 8:00,10.5,,20.1,0
2004/2/1,8:10:00,19,0,37.9,0,21.6,0,19.3,0,22,0,2004/2/1 8:10,10.7,,20,0
2004/2/1,8:20:00,18.9,0,37.6,0,21.4,0,19.2,0,21.7,0,2004/2/1 8:20,10.7,,19.9,0
2004/2/1,8:30:00,18.9,0,37.5,0,21.2,0,19.2,0,21.6,0,2004/2/1 8:30,10.8,,19.9,0
2004/2/1,8:40:00,18.8,0,37.5,0,21,0,19.1,0,21.4,0,2004/2/1 8:40,10.8,,19.7,0
2004/2/1,8:50:00,18.7,0,37.5,0,20.9,0,19.1,0,21.2,0,2004/2/1 8:50,10.8,,19.6,0
2004/2/1,9:00:00,18.7,0,37.4,0,20.7,0,19,0,21,0,2004/2/1 9:00,10.9,,19.5,0
2004/2/1,9:10:00,18.6,0,37.3,0,20.6,0,19,0,20.9,0,2004/2/1 9:10,11,,19.5,0
2004/2/1,9:20:00,18.6,0,37.3,0,20.5,0,19,0,20.8,0,2004/2/1 9:20,11.1,,19.3,0
2004/2/1,9:30:00,18.6,0,37.2,0,20.4,0,19,0,20.6,0,2004/2/1 9:30,11.2,,19.4,0
2004/2/1,9:40:00,18.5,0,37.2,0,20.3,0,18.9,0,20.5,0,2004/2/1 9:40,11.3,,19.2,0
2004/2/1,9:50:00,18.5,0,37,0,20.2,0,18.9,0,20.4,0,2004/2/1 9:50,11.3,,19.2,0
2004/2/1,10:00:00,18.5,0,37.1,0,20.1,0,18.9,0,20.3,0,2004/2/1 10:00,11.4,,19.2,0
2004/2/1,10:10:00,18.4,0,37.1,0,20,0,18.9,0,20.2,0,2004/2/1 10:10,11.5,,19.1,0
2004/2/1,10:20:00,18.4,0,36.7,0,20,0,18.9,0,20.1,0,2004/2/1 10:20,11.5,,19,0
2004/2/1,10:30:00,18.4,0,37.1,0,19.9,0,18.8,0,20,0,2004/2/1 10:30,11.6,,19,0
2004/2/1,10:40:00,18.4,0,37.1,0,19.9,0,18.8,0,19.9,0,2004/2/1 10:40,11.7,,18.9,0
2004/2/1,10:50:00,18.4,0,37.1,0,19.9,0,18.8,0,19.9,0,2004/2/1 10:50,11.7,,18.9,0
2004/2/1,11:00:00,18.4,0,37.1,0,19.8,0,18.8,0,19.9,0,2004/2/1 11:00,11.8,,19,0
2004/2/1,11:10:00,18.4,0,37,0,19.8,0,18.8,0,19.8,0,2004/2/1 11:10,11.9,,18.8,0
2004/2/1,11:20:00,18.4,0,36.7,0,19.8,0,18.8,0,19.8,0,2004/2/1 11:20,11.9,,18.8,0
2004/2/1,11:30:00,18.4,0,36.4,0,19.8,0,18.8,0,19.7,0,2004/2/1 11:30,12,,18.9,0
2004/2/1,11:40:00,18.5,0,36.5,0,19.8,0,18.8,0,19.7,0,2004/2/1 11:40,12,,18.7,0
2004/2/1,11:50:00,18.5,0,36.6,0,19.8,0,18.8,0,19.7,0,2004/2/1 11:50,12.1,,18.8,0
2004/2/1,12:00:00,18.5,0,36.5,0,19.8,0,18.8,0,19.7,0,2004/2/1 12:00,12.1,,18.7,0
2004/2/1,12:10:00,18.5,0,36.6,0,19.8,0,18.8,0,19.6,0,2004/2/1 12:10,12.2,,18.6,0
2004/2/1,12:20:00,18.6,0,36.6,0,19.8,0,18.8,0,19.6,0,2004/2/1 12:20,12.3,,18.7,0
2004/2/1,12:30:00,18.6,0,36.6,0,19.8,0,18.8,0,19.6,0,2004/2/1 12:30,12.4,,18.7,0
2004/2/1,12:40:00,18.6,0,36.5,0,19.9,0,18.9,0,19.6,0,2004/2/1 12:40,12.4,,18.6,0
2004/2/1,12:50:00,18.7,0,36.5,0,19.9,0,18.9,0,19.5,0,2004/2/1 12:50,12.4,,18.6,0
2004/2/1,13:00:00,18.7,0,36.4,0,19.9,0,18.9,0,19.5,0,2004/2/1 13:00,12.5,,18.8,0
2004/2/1,13:10:00,18.7,0,36.5,0,20,0,18.9,0,19.5,0,2004/2/1 13:10,12.5,,18.7,0
2004/2/1,13:20:00,18.8,0,36.5,0,20,0,18.9,0,19.5,0,2004/2/1 13:20,12.5,,18.8,0
2004/2/1,13:30:00,18.9,0,36.6,0,20.1,0,19,0,19.5,0,2004/2/1 13:30,12.6,,18.8,0
2004/2/1,13:40:00,19,0,36.5,0,20.2,0,19,0,19.5,0,2004/2/1 13:40,12.7,,18.8,0
2004/2/1,13:50:00,19.1,0,36.5,0,20.3,0,19.1,0,19.5,0,2004/2/1 13:50,12.8,,18.9,0
2004/2/1,14:00:00,19.1,0,36.4,0,20.4,0,19.1,0,19.5,0,2004/2/1 14:00,12.8,,19.1,0
2004/2/1,14:10:00,19.2,0,36.5,0,20.5,0,19.1,0,19.5,0,2004/2/1 14:10,12.8,,19,0
2004/2/1,14:20:00,19.2,0,36.4,0,20.7,0,19.1,0,19.5,0,2004/2/1 14:20,12.8,,19.2,0
2004/2/1,14:30:00,19.3,0,36.4,0,20.8,0,19.2,0,19.5,0,2004/2/1 14:30,13,,19.3,0
2004/2/1,14:40:00,19.3,0,36.4,0,20.9,0,19.2,0,19.6,0,2004/2/1 14:40,13.1,,19.2,0
2004/2/1,14:50:00,19.4,0,36.4,0,21.1,0,19.2,0,19.6,0,2004/2/1 14:50,13,,19.4,0
2004/2/1,15:00:00,19.4,0,36.4,0,21.2,0,19.3,0,19.6,0,2004/2/1 15:00,13.1,,19.3,0
2004/2/1,15:10:00,19.5,0,36.4,0,21.2,0,19.3,0,19.6,0,2004/2/1 15:10,13.1,,19.4,0
2004/2/1,15:20:00,19.4,0,36.4,0,21.3,0,19.3,0,19.7,0,2004/2/1 15:20,13.2,,19.5,0
2004/2/1,15:30:00,19.4,0,36.2,0,21.3,0,19.3,0,19.7,0,2004/2/1 15:30,13.3,,19.5,0
2004/2/1,15:40:00,19.3,0,36.2,0,21.3,0,19.3,0,19.6,0,2004/2/1 15:40,13.3,,19.5,0
2004/2/1,15:50:00,19.3,0,36.5,0,21.2,0,19.3,0,19.6,0,2004/2/1 15:50,13.3,,19.5,0
2004/2/1,16:00:00,19.2,0,36.5,0,21.2,0,19.2,0,19.6,0,2004/2/1 16:00,13.4,,19.5,0
2004/2/1,16:10:00,19.2,0,36.4,0,21.1,0,19.2,0,19.6,0,2004/2/1 16:10,13.5,,19.5,0
2004/2/1,16:20:00,19.2,0,36.3,0,21,0,19.2,0,19.6,0,2004/2/1 16:20,13.5,,19.4,0
2004/2/1,16:30:00,19.1,0,36.5,0,20.9,0,19.2,0,19.5,0,2004/2/1 16:30,13.5,,19.3,0
2004/2/1,16:40:00,19,0,36.5,0,20.8,0,19.1,0,19.5,0,2004/2/1 16:40,13.5,,19.2,0
2004/2/1,16:50:00,18.9,0,36.6,0,20.7,0,19.1,0,19.5,0,2004/2/1 16:50,13.7,,19.2,0
2004/2/1,17:00:00,18.9,0,36.7,0,20.6,0,19.1,0,19.5,0,2004/2/1 17:00,13.6,,19.2,0
2004/2/1,17:10:00,18.8,0,36.7,0,20.5,0,19,0,19.4,0,2004/2/1 17:10,13.6,,19.2,0
2004/2/1,17:20:00,18.8,0,36.5,0,20.4,0,19,0,19.4,0,2004/2/1 17:20,13.8,,19.2,0
2004/2/1,17:30:00,18.8,0,36.4,0,20.4,0,19,0,19.3,0,2004/2/1 17:30,13.8,,19.2,0
2004/2/1,17:40:00,18.7,0,36.2,0,20.3,0,19,0,19.3,0,2004/2/1 17:40,13.8,,19.1,0
2004/2/1,17:50:00,18.7,0,36,0,20.2,0,18.9,0,19.3,0,2004/2/1 17:50,13.8,,19,0
2004/2/1,18:00:00,18.7,0,35.9,0,20.1,0,18.9,0,19.2,0,2004/2/1 18:00,14,,18.9,0
2004/2/1,18:10:00,18.6,0,35.8,0,20,0,18.9,0,19.2,0,2004/2/1 18:10,14,,18.9,0
2004/2/1,18:20:00,18.6,0,35.8,0,19.9,0,18.9,0,19.2,0,2004/2/1 18:20,14,,19,0
2004/2/1,18:30:00,20.5,0,34.4,0,20.2,0,19.4,0,33.7,0,2004/2/1 18:30,14.1,,18.9,0
2004/2/1,18:40:00,21.3,0,33.8,0,21,0,20.1,0,33.7,0,2004/2/1 18:40,14.1,,19.3,0
2004/2/1,18:50:00,21.8,0,33.3,0,21.6,0,20.6,0,34.1,0,2004/2/1 18:50,14.1,,19.6,0
2004/2/1,19:00:00,22.1,0,33.6,0,22.1,0,20.8,0,31.7,0,2004/2/1 19:00,14.1,,19.9,0
2004/2/1,19:10:00,22.5,0,34.7,0,22.5,0,21.1,0,30,0,2004/2/1 19:10,14.2,,20.2,0
2004/2/1,19:20:00,22.9,0,34.2,0,22.8,0,21.2,0,29,0,2004/2/1 19:20,14.2,,20.5,0
2004/2/1,19:30:00,22.7,0,34.3,0,23,0,21.2,0,28.2,0,2004/2/1 19:30,14.2,,20.6,0
2004/2/1,19:40:00,23.1,0,34,0,23.2,0,21.4,0,27.9,0,2004/2/1 19:40,14.3,,20.7,0
2004/2/1,19:50:00,23.3,0,33.2,0,23.3,0,21.4,0,27.7,0,2004/2/1 19:50,14.3,,20.9,0
2004/2/1,20:00:00,23.4,0,35.1,0,23.4,0,21.5,0,27.3,0,2004/2/1 20:00,14.5,,21,0
2004/2/1,20:10:00,23.4,0,36.6,0,23.6,0,21.6,0,27.1,0,2004/2/1 20:10,14.4,,21.1,0
2004/2/1,20:20:00,23.8,0,36.4,0,23.8,0,21.9,0,26.9,0,2004/2/1 20:20,14.4,,21.3,0
2004/2/1,20:30:00,23.9,0,36.3,0,23.9,0,22.1,0,26.8,0,2004/2/1 20:30,12,,21.5,0
2004/2/1,20:40:00,24,0,35.7,0,24.1,0,22.3,0,26.6,0,2004/2/1 20:40,12.1,,21.6,0
2004/2/1,20:50:00,24.1,0,35.4,0,24.3,0,22.4,0,26.5,0,2004/2/1 20:50,12,,21.9,0
2004/2/1,21:00:00,24.1,0,35.1,0,24.4,0,22.4,0,26.5,0,2004/2/1 21:00,12.1,,22,0
2004/2/1,21:10:00,24.2,0,36.3,0,24.5,0,22.4,0,26.4,0,2004/2/1 21:10,12.2,,22.1,0
2004/2/1,21:20:00,23.9,0,37.4,0,24.5,0,22.4,0,26.1,0,2004/2/1 21:20,12.1,,22.1,0
2004/2/1,21:30:00,22.8,0,38.8,0,24.3,0,21.8,0,25.4,0,2004/2/1 21:30,12,,22.1,0
2004/2/1,21:40:00,22.4,0,39.2,0,24.1,0,21.5,0,24.8,0,2004/2/1 21:40,12.1,,22,0
2004/2/1,21:50:00,22,0,39.7,0,23.9,0,21.2,0,24.4,0,2004/2/1 21:50,12.2,,21.9,0
2004/2/1,22:00:00,21.7,0,39.5,0,23.7,0,21,0,24,0,2004/2/1 22:00,12.3,,21.8,0
2004/2/1,22:10:00,21.4,0,39.3,0,23.5,0,20.8,0,23.7,0,2004/2/1 22:10,12.4,,21.7,0
2004/2/1,22:20:00,21.2,0,39.6,0,23.2,0,20.6,0,23.4,0,2004/2/1 22:20,12.4,,21.5,0
2004/2/1,22:30:00,21,0,39.6,0,23,0,20.5,0,23.1,0,2004/2/1 22:30,12.5,,21.4,0
2004/2/1,22:40:00,20.8,0,39.5,0,22.8,0,20.4,0,22.9,0,2004/2/1 22:40,12.6,,21.2,0
2004/2/1,22:50:00,20.6,0,39.6,0,22.6,0,20.2,0,22.6,0,2004/2/1 22:50,12.6,,21.1,0
2004/2/1,23:00:00,20.4,0,39.5,0,22.4,0,20.1,0,22.4,0,2004/2/1 23:00,12.6,,21.1,0
2004/2/1,23:10:00,20.3,0,39.5,0,22.2,0,20.1,0,22.2,0,2004/2/1 23:10,12.7,,20.9,0
2004/2/1,23:20:00,20.1,0,39.5,0,22.1,0,20,0,22,0,2004/2/1 23:20,12.7,,20.7,0
2004/2/1,23:30:00,20,0,39.6,0,21.9,0,19.9,0,21.8,0,2004/2/1 23:30,12.8,,20.6,0
2004/2/1,23:40:00,19.9,0,39.5,0,21.8,0,19.9,0,21.7,0,2004/2/1 23:40,12.8,,20.5,0
2004/2/1,23:50:00,19.8,0,39.4,0,21.6,0,19.8,0,21.6,0,2004/2/1 23:50,12.9,,20.4,0
2004/2/2,0:00:00,19.8,0,39.3,0,21.5,0,19.8,0,21.4,0,2004/2/2 0:00,13,,20.3,0
2004/2/2,0:10:00,19.7,0,39.2,0,21.4,0,19.7,0,21.3,0,2004/2/2 0:10,13.1,,20.2,0
2004/2/2,0:20:00,19.6,0,38.9,0,21.3,0,19.7,0,21.1,0,2004/2/2 0:20,13.2,,20.2,0
2004/2/2,0:30:00,19.6,0,38.9,0,21.2,0,19.6,0,21,0,2004/2/2 0:30,13.2,,20.1,0
2004/2/2,0:40:00,19.5,0,38.8,0,21.1,0,19.6,0,20.9,0,2004/2/2 0:40,13.3,,20,0
2004/2/2,0:50:00,19.5,0,38.8,0,21,0,19.6,0,20.8,0,2004/2/2 0:50,13.4,,19.9,0
2004/2/2,1:00:00,19.4,0,38.8,0,20.9,0,19.6,0,20.7,0,2004/2/2 1:00,13.3,,19.9,0
2004/2/2,1:10:00,19.4,0,38.6,0,20.8,0,19.5,0,20.6,0,2004/2/2 1:10,13.4,,19.7,0
2004/2/2,1:20:00,19.4,0,38.4,0,20.7,0,19.5,0,20.5,0,2004/2/2 1:20,13.5,,19.8,0
2004/2/2,1:30:00,19.3,0,38.3,0,20.7,0,19.5,0,20.4,0,2004/2/2 1:30,13.5,,19.6,0
2004/2/2,1:40:00,19.3,0,38.2,0,20.6,0,19.5,0,20.3,0,2004/2/2 1:40,13.5,,19.6,0
2004/2/2,1:50:00,19.3,0,38.2,0,20.5,0,19.4,0,20.2,0,2004/2/2 1:50,13.7,,19.5,0
2004/2/2,2:00:00,19.2,0,38.1,0,20.4,0,19.4,0,20.1,0,2004/2/2 2:00,13.7,,19.4,0
2004/2/2,2:10:00,19.2,0,38,0,20.4,0,19.4,0,20,0,2004/2/2 2:10,13.7,,19.3,0
2004/2/2,2:20:00,19.1,0,37.8,0,20.3,0,19.4,0,19.9,0,2004/2/2 2:20,13.8,,19.3,0
2004/2/2,2:30:00,19.1,0,37.7,0,20.2,0,19.3,0,19.9,0,2004/2/2 2:30,13.8,,19.2,0
2004/2/2,2:40:00,19.1,0,37.7,0,20.2,0,19.3,0,19.8,0,2004/2/2 2:40,13.9,,19.2,0
2004/2/2,2:50:00,19,0,37.7,0,20.1,0,19.3,0,19.8,0,2004/2/2 2:50,13.9,,19.2,0
2004/2/2,3:00:00,19,0,37.7,0,20.1,0,19.3,0,19.7,0,2004/2/2 3:00,14,,19.2,0
2004/2/2,3:10:00,19,0,37.5,0,20,0,19.2,0,19.7,0,2004/2/2 3:10,14,,19.3,0
2004/2/2,3:20:00,18.9,0,37.4,0,20,0,19.2,0,19.6,0,2004/2/2 3:20,14.1,,19.2,0
2004/2/2,3:30:00,18.9,0,37.3,0,19.9,0,19.2,0,19.6,0,2004/2/2 3:30,14.1,,19,0
2004/2/2,3:40:00,18.9,0,37.2,0,19.9,0,19.2,0,19.5,0,2004/2/2 3:40,14.1,,19,0
2004/2/2,3:50:00,18.9,0,37.2,0,19.9,0,19.2,0,19.5,0,2004/2/2 3:50,14.2,,19.1,0
2004/2/2,4:00:00,18.8,0,37.1,0,19.9,0,19.2,0,19.5,0,2004/2/2 4:00,14.2,,18.9,0
2004/2/2,4:10:00,18.8,0,37.1,0,19.8,0,19.1,0,19.4,0,2004/2/2 4:10,14.2,,18.9,0
2004/2/2,4:20:00,18.8,0,37,0,19.8,0,19.1,0,19.3,0,2004/2/2 4:20,14.3,,19,0
2004/2/2,4:30:00,18.8,0,36.8,0,19.8,0,19.1,0,19.3,0,2004/2/2 4:30,14.3,,18.8,0
2004/2/2,4:40:00,18.7,0,36.7,0,19.7,0,19.1,0,19.3,0,2004/2/2 4:40,14.4,,18.9,0
2004/2/2,4:50:00,18.7,0,36.6,0,19.7,0,19.1,0,19.2,0,2004/2/2 4:50,14.5,,18.8,0
2004/2/2,5:00:00,18.7,0,36.7,0,19.7,0,19,0,19.2,0,2004/2/2 5:00,14.4,,18.8,0
2004/2/2,5:10:00,18.7,0,36.8,0,19.7,0,19,0,19.2,0,2004/2/2 5:10,14.4,,18.7,0
2004/2/2,5:20:00,18.6,0,36.8,0,19.6,0,19,0,19.1,0,2004/2/2 5:20,14.6,,18.7,0
2004/2/2,5:30:00,18.6,0,36.8,0,19.6,0,19,0,19.1,0,2004/2/2 5:30,14.5,,18.6,0
2004/2/2,5:40:00,18.6,0,36.6,0,19.6,0,19,0,19.1,0,2004/2/2 5:40,14.6,,18.6,0
2004/2/2,5:50:00,18.6,0,36.5,0,19.6,0,18.9,0,19,0,2004/2/2 5:50,14.6,,18.6,0
2004/2/2,6:00:00,18.7,0,37,0,19.6,0,19,0,19.6,0,2004/2/2 6:00,15.3,,18.7,0
2004/2/2,6:10:00,19.6,0,36.6,0,20.2,0,19.3,0,21.1,0,2004/2/2 6:10,15.3,,18.8,0
2004/2/2,6:20:00,20,0,36.1,0,20.8,0,19.6,0,22,0,2004/2/2 6:20,15.4,,19.1,0
2004/2/2,6:30:00,20.5,0,35.3,0,21.3,0,19.9,0,22.6,0,2004/2/2 6:30,15.3,,19.4,0
2004/2/2,6:40:00,20.9,0,34.6,0,21.9,0,20.2,0,23.1,0,2004/2/2 6:40,15.4,,19.8,0
2004/2/2,6:50:00,21.2,0,34.6,0,22.5,0,20.4,0,24.1,0,2004/2/2 6:50,15.5,,20.1,0
2004/2/2,7:00:00,21.5,0,34.3,0,22.9,0,20.6,0,24.4,0,2004/2/2 7:00,12,,20.3,0
2004/2/2,7:10:00,21.7,0,34.4,0,23.2,0,20.8,0,24.6,0,2004/2/2 7:10,10.4,,20.6,0
2004/2/2,7:20:00,20.8,0,35.4,0,23.4,0,20.6,0,24,0,2004/2/2 7:20,10.4,,20.8,0
2004/2/2,7:30:00,20.3,0,35.9,0,23.2,0,20.3,0,23.7,0,2004/2/2 7:30,10.6,,20.8,0
2004/2/2,7:40:00,20,0,36.2,0,23.1,0,20.1,0,23.3,0,2004/2/2 7:40,10.6,,20.8,0
2004/2/2,7:50:00,19.8,0,36.3,0,22.9,0,19.9,0,23,0,2004/2/2 7:50,10.6,,20.6,0
2004/2/2,8:00:00,19.7,0,36.3,0,22.6,0,19.8,0,22.8,0,2004/2/2 8:00,10.8,,20.6,0
2004/2/2,8:10:00,19.6,0,36.3,0,22.4,0,19.7,0,22.7,0,2004/2/2 8:10,10.8,,20.5,0
2004/2/2,8:20:00,19.5,0,36.3,0,22.2,0,19.6,0,22.4,0,2004/2/2 8:20,11,,20.4,0
2004/2/2,8:30:00,19.4,0,36.2,0,22,0,19.6,0,22.2,0,2004/2/2 8:30,11.1,,20.4,0
2004/2/2,8:40:00,19.3,0,36,0,21.8,0,19.5,0,22,0,2004/2/2 8:40,11,,20.2,0
2004/2/2,8:50:00,19.3,0,35.7,0,21.6,0,19.5,0,21.8,0,2004/2/2 8:50,11.2,,20.1,0
2004/2/2,9:00:00,19.2,0,35.5,0,21.5,0,19.4,0,21.6,0,2004/2/2 9:00,11.3,,20,0
2004/2/2,9:10:00,19.1,0,35.4,0,21.3,0,19.4,0,21.5,0,2004/2/2 9:10,11.3,,20,0
2004/2/2,9:20:00,19.1,0,35.3,0,21.2,0,19.4,0,21.3,0,2004/2/2 9:20,11.5,,19.8,0
2004/2/2,9:30:00,19,0,35.4,0,21,0,19.3,0,21.2,0,2004/2/2 9:30,11.5,,19.7,0
2004/2/2,9:40:00,19,0,35.3,0,20.9,0,19.3,0,21,0,2004/2/2 9:40,11.6,,19.6,0
2004/2/2,9:50:00,18.9,0,35.1,0,20.8,0,19.3,0,20.9,0,2004/2/2 9:50,11.7,,19.7,0
2004/2/2,10:00:00,18.9,0,35.2,0,20.7,0,19.3,0,20.8,0,2004/2/2 10:00,11.7,,19.5,0
2004/2/2,10:10:00,18.9,0,35.2,0,20.6,0,19.2,0,20.7,0,2004/2/2 10:10,11.7,,19.4,0
2004/2/2,10:20:00,18.8,0,35.1,0,20.5,0,19.2,0,20.6,0,2004/2/2 10:20,11.8,,19.4,0
2004/2/2,10:30:00,18.8,0,35.2,0,20.4,0,19.2,0,20.5,0,2004/2/2 10:30,11.9,,19.4,0
2004/2/2,10:40:00,18.8,0,35.2,0,20.3,0,19.2,0,20.4,0,2004/2/2 10:40,12,,19.2,0
2004/2/2,10:50:00,18.7,0,34.9,0,20.2,0,19.1,0,20.2,0,2004/2/2 10:50,12,,19.2,0
2004/2/2,11:00:00,18.7,0,34.8,0,20.2,0,19.1,0,20.1,0,2004/2/2 11:00,12.1,,19.2,0
2004/2/2,11:10:00,18.7,0,34.9,0,20.1,0,19.1,0,20,0,2004/2/2 11:10,12.2,,19.2,0
2004/2/2,11:20:00,18.6,0,34.8,0,20.1,0,19.1,0,20,0,2004/2/2 11:20,12.2,,19.2,0
2004/2/2,11:30:00,18.6,0,34.8,0,20,0,19.1,0,19.9,0,2004/2/2 11:30,12.2,,19.1,0
2004/2/2,11:40:00,18.6,0,34.8,0,19.9,0,19,0,19.8,0,2004/2/2 11:40,12.3,,19.1,0
2004/2/2,11:50:00,18.6,0,34.7,0,19.9,0,19,0,19.8,0,2004/2/2 11:50,12.4,,18.9,0
2004/2/2,12:00:00,18.6,0,34.7,0,19.9,0,19,0,19.7,0,2004/2/2 12:00,12.5,,18.9,0
2004/2/2,12:10:00,18.6,0,34.7,0,19.8,0,19,0,19.7,0,2004/2/2 12:10,12.6,,19,0
2004/2/2,12:20:00,18.5,0,34.8,0,19.8,0,19,0,19.6,0,2004/2/2 12:20,12.6,,18.8,0
2004/2/2,12:30:00,18.5,0,34.7,0,19.8,0,19,0,19.6,0,2004/2/2 12:30,12.7,,18.8,0
2004/2/2,12:40:00,18.5,0,34.6,0,19.7,0,19,0,19.5,0,2004/2/2 12:40,12.7,,18.9,0
2004/2/2,12:50:00,18.5,0,34.7,0,19.7,0,19,0,19.5,0,2004/2/2 12:50,12.7,,18.7,0
2004/2/2,13:00:00,18.5,0,34.4,0,19.7,0,18.9,0,19.4,0,2004/2/2 13:00,12.8,,18.7,0
2004/2/2,13:10:00,18.5,0,34.3,0,19.6,0,18.9,0,19.4,0,2004/2/2 13:10,12.8,,18.6,0
2004/2/2,13:20:00,18.5,0,34.3,0,19.6,0,18.9,0,19.4,0,2004/2/2 13:20,12.8,,18.6,0
2004/2/2,13:30:00,18.4,0,34.2,0,19.6,0,18.9,0,19.3,0,2004/2/2 13:30,13,,18.6,0
2004/2/2,13:40:00,18.4,0,34.2,0,19.6,0,18.9,0,19.3,0,2004/2/2 13:40,13,,18.6,0
2004/2/2,13:50:00,18.4,0,34.3,0,19.5,0,18.9,0,19.3,0,2004/2/2 13:50,13,,18.5,0
2004/2/2,14:00:00,18.4,0,34.3,0,19.5,0,18.9,0,19.2,0,2004/2/2 14:00,13.1,,18.5,0
2004/2/2,14:10:00,18.4,0,34.2,0,19.5,0,18.8,0,19.2,0,2004/2/2 14:10,13.1,,18.5,0
2004/2/2,14:20:00,18.3,0,34.2,0,19.4,0,18.8,0,19.1,0,2004/2/2 14:20,13.2,,18.6,0
2004/2/2,14:30:00,18.3,0,34.1,0,19.4,0,18.8,0,19.1,0,2004/2/2 14:30,13.2,,18.5,0
2004/2/2,14:40:00,18.3,0,34.2,0,19.4,0,18.8,0,19.1,0,2004/2/2 14:40,13.3,,18.5,0
2004/2/2,14:50:00,18.3,0,34.1,0,19.3,0,18.8,0,19,0,2004/2/2 14:50,13.3,,18.4,0
2004/2/2,15:00:00,18.3,0,34.1,0,19.3,0,18.8,0,19,0,2004/2/2 15:00,13.4,,18.4,0
2004/2/2,15:10:00,18.3,0,34,0,19.3,0,18.8,0,19,0,2004/2/2 15:10,13.4,,18.5,0
2004/2/2,15:20:00,18.3,0,34.1,0,19.3,0,18.8,0,19,0,2004/2/2 15:20,13.5,,18.4,0
2004/2/2,15:30:00,18.2,0,34.1,0,19.3,0,18.7,0,18.9,0,2004/2/2 15:30,13.5,,18.3,0
2004/2/2,15:40:00,18.2,0,34.2,0,19.3,0,18.7,0,18.9,0,2004/2/2 15:40,13.6,,18.4,0
2004/2/2,15:50:00,18.2,0,34.3,0,19.2,0,18.7,0,18.9,0,2004/2/2 15:50,13.6,,18.3,0
2004/2/2,16:00:00,18.2,0,34.3,0,19.2,0,18.7,0,18.9,0,2004/2/2 16:00,13.6,,18.2,0
2004/2/2,16:10:00,18.2,0,34.2,0,19.2,0,18.7,0,18.8,0,2004/2/2 16:10,13.7,,18.2,0
2004/2/2,16:20:00,18.2,0,34.1,0,19.2,0,18.7,0,18.8,0,2004/2/2 16:20,13.7,,18.3,0
2004/2/2,16:30:00,18.2,0,34,0,19.2,0,18.7,0,18.8,0,2004/2/2 16:30,13.7,,18.2,0
2004/2/2,16:40:00,18.1,0,33.9,0,19.2,0,18.7,0,18.7,0,2004/2/2 16:40,13.9,,18.2,0
2004/2/2,16:50:00,18.1,0,33.9,0,19.1,0,18.6,0,18.7,0,2004/2/2 16:50,13.8,,18.3,0
2004/2/2,17:00:00,18.1,0,33.8,0,19.1,0,18.6,0,18.7,0,2004/2/2 17:00,13.8,,18.2,0
2004/2/2,17:10:00,18.1,0,33.8,0,19.1,0,18.6,0,18.7,0,2004/2/2 17:10,14,,18.1,0
2004/2/2,17:20:00,18.1,0,33.7,0,19.1,0,18.6,0,18.6,0,2004/2/2 17:20,14,,18.2,0
2004/2/2,17:30:00,18.1,0,33.6,0,19.1,0,18.6,0,18.6,0,2004/2/2 17:30,14,,18.1,0
2004/2/2,17:40:00,18,0,33.6,0,19.1,0,18.6,0,18.6,0,2004/2/2 17:40,14,,18.1,0
2004/2/2,17:50:00,18,0,33.2,0,19,0,18.6,0,18.6,0,2004/2/2 17:50,14,,18.2,0
2004/2/2,18:00:00,17.9,0,33.2,0,19,0,18.5,0,18.5,0,2004/2/2 18:00,14.2,,18,0
2004/2/2,18:10:00,17.9,0,33.1,0,19,0,18.5,0,18.5,0,2004/2/2 18:10,14.1,,18.1,0
2004/2/2,18:20:00,17.9,0,32.9,0,18.9,0,18.5,0,18.5,0,2004/2/2 18:20,14.2,,18,0
2004/2/2,18:30:00,19.6,0,32.5,0,19.2,0,18.8,0,19.9,0,2004/2/2 18:30,14.2,,18.1,0
2004/2/2,18:40:00,21.2,0,31,0,19.9,0,19.4,0,21.3,0,2004/2/2 18:40,14.2,,18.4,0
2004/2/2,18:50:00,21.5,0,31.2,0,20.7,0,20,0,22.2,0,2004/2/2 18:50,14.3,,18.9,0
2004/2/2,19:00:00,21.7,0,31.3,0,21.4,0,20.2,0,29.6,0,2004/2/2 19:00,12.7,,19.3,0
2004/2/2,19:10:00,22.2,0,31.6,0,22,0,20.8,0,40.9,0,2004/2/2 19:10,12.7,,19.8,0
2004/2/2,19:20:00,22.5,0,32,0,22.3,0,21.1,0,32.9,0,2004/2/2 19:20,12.7,,20.1,0
2004/2/2,19:30:00,22.5,0,31.6,0,22.6,0,21.2,0,31,0,2004/2/2 19:30,12.8,,20.4,0
2004/2/2,19:40:00,22.7,0,31.2,0,22.8,0,21.3,0,29.5,0,2004/2/2 19:40,12.9,,20.6,0
2004/2/2,19:50:00,22.9,0,30.6,0,22.9,0,21.4,0,28.5,0,2004/2/2 19:50,12.8,,20.8,0
2004/2/2,20:00:00,22.9,0,30.3,0,23,0,21.5,0,27.7,0,2004/2/2 20:00,12.9,,20.8,0
2004/2/2,20:10:00,22.8,0,30.4,0,23.1,0,21.4,0,27.1,0,2004/2/2 20:10,12.9,,20.9,0
2004/2/2,20:20:00,23.1,0,30.8,0,23.2,0,21.6,0,26.7,0,2004/2/2 20:20,13,,21,0
2004/2/2,20:30:00,23.2,0,30.9,0,23.3,0,21.7,0,26.5,0,2004/2/2 20:30,13.1,,21.2,0
2004/2/2,20:40:00,23.3,0,30.4,0,23.3,0,21.8,0,26.2,0,2004/2/2 20:40,13.2,,21.2,0
2004/2/2,20:50:00,23.5,0,29.9,0,23.3,0,21.9,0,26.1,0,2004/2/2 20:50,13.2,,21.3,0
2004/2/2,21:00:00,23.1,0,30.3,0,23.4,0,21.7,0,26,0,2004/2/2 21:00,13.2,,21.3,0
2004/2/2,21:10:00,23.4,0,29.8,0,23.4,0,21.9,0,26,0,2004/2/2 21:10,13.3,,21.4,0
2004/2/2,21:20:00,23.4,0,29.5,0,23.4,0,21.9,0,25.8,0,2004/2/2 21:20,13.3,,21.4,0
2004/2/2,21:30:00,23.3,0,29.4,0,23.4,0,21.9,0,25.6,0,2004/2/2 21:30,13.3,,21.4,0
2004/2/2,21:40:00,23.6,0,29.1,0,23.4,0,21.8,0,25.5,0,2004/2/2 21:40,13.4,,21.5,0
2004/2/2,21:50:00,24,0,28.4,0,23.5,0,21.7,0,25.6,0,2004/2/2 21:50,13.5,,21.5,0
2004/2/2,22:00:00,24.1,0,28.1,0,23.5,0,21.6,0,25.5,0,2004/2/2 22:00,13.6,,21.6,0
2004/2/2,22:10:00,23.6,0,28.8,0,23.5,0,21.5,0,25.5,0,2004/2/2 22:10,13.6,,21.5,0
2004/2/2,22:20:00,22.8,0,30.4,0,23.5,0,21.4,0,25.4,0,2004/2/2 22:20,12.8,,21.5,0
2004/2/2,22:30:00,22.1,0,31.2,0,23.4,0,21.2,0,24.4,0,2004/2/2 22:30,13,,21.6,0
2004/2/2,22:40:00,21.7,0,31.7,0,23.3,0,20.9,0,23.8,0,2004/2/2 22:40,13.1,,21.4,0
2004/2/2,22:50:00,21.4,0,32.3,0,23.1,0,20.7,0,23.4,0,2004/2/2 22:50,13.1,,21.3,0
2004/2/2,23:00:00,21.1,0,32.7,0,22.9,0,20.5,0,23.1,0,2004/2/2 23:00,13.2,,21.3,0
2004/2/2,23:10:00,20.8,0,33.1,0,22.7,0,20.4,0,22.8,0,2004/2/2 23:10,13.2,,21.1,0
2004/2/2,23:20:00,20.6,0,33.2,0,22.5,0,20.3,0,22.6,0,2004/2/2 23:20,13.2,,20.9,0
2004/2/2,23:30:00,20.5,0,33.5,0,22.4,0,20.2,0,22.3,0,2004/2/2 23:30,13.4,,20.8,0
2004/2/2,23:40:00,20.3,0,33.7,0,22.2,0,20.1,0,22.1,0,2004/2/2 23:40,13.4,,20.8,0
2004/2/2,23:50:00,20.1,0,33.9,0,22,0,20,0,22,0,2004/2/2 23:50,13.4,,20.7,0
2004/2/3,0:00:00,20,0,34.2,0,21.9,0,19.9,0,21.8,0,2004/2/3 0:00,13.5,,20.5,0
2004/2/3,0:10:00,19.9,0,34.3,0,21.7,0,19.9,0,21.7,0,2004/2/3 0:10,13.5,,20.4,0
2004/2/3,0:20:00,19.8,0,34.4,0,21.5,0,19.8,0,21.6,0,2004/2/3 0:20,13.5,,20.4,0
2004/2/3,0:30:00,19.7,0,34.8,0,21.4,0,19.8,0,21.4,0,2004/2/3 0:30,13.7,,20.3,0
2004/2/3,0:40:00,19.6,0,34.9,0,21.3,0,19.7,0,21.3,0,2004/2/3 0:40,13.7,,20.1,0
2004/2/3,0:50:00,19.6,0,35,0,21.2,0,19.7,0,21.2,0,2004/2/3 0:50,13.7,,20.1,0
2004/2/3,1:00:00,19.5,0,35,0,21.1,0,19.7,0,21.1,0,2004/2/3 1:00,13.8,,20,0
2004/2/3,1:10:00,19.5,0,35.1,0,21,0,19.6,0,21,0,2004/2/3 1:10,13.8,,19.9,0
2004/2/3,1:20:00,19.4,0,35.2,0,20.9,0,19.6,0,20.8,0,2004/2/3 1:20,13.9,,19.8,0
2004/2/3,1:30:00,19.4,0,35.3,0,20.8,0,19.6,0,20.7,0,2004/2/3 1:30,13.9,,19.7,0